TRAAC DEB, 10796

Orbit data source: Space-Track

TRAAC DEB, 10796 is space debris in LEO originally from a launch on Wed, 15 Nov 1961 UTC launched from the Air Force Eastern Test Range (AFETR). Debris objects in space refer to the collection of defunct objects orbiting the Earth. Examples of debris include non-operational satellites, rocket bodies, and fragments generated from explosions, collisions, or faulty payload assembly.

Loading next visibility...
Identifier
10796, 1961-031D
Orbit
LEO
Country
Flag of USUS
Related business
Manufacturer
Unknown
Mission
Spacecraft
Bus & Motor
Unknown
Mass
Unknown
Launch date (UTC)
1961-11-15 (64 years ago)
Launch vehicle
Unknown
Launch site
Air Force Eastern Test Range (AFETR)
Object type
Payload
Rocket body
Debris
Shape & HBR
Unknown shape, 0.2 m
Radar Cross Section
Small (<0.1 m²)

Expand to show TLE details & history
Last TLE update: 6 hours ago

TLE from 6 hours ago
0 TRAAC DEB
1 10796U 61031D   26121.29033468  .00000083  00000-0  75823-4 0  9991
2 10796  32.4428 334.2172 0100922  65.0178 101.3571 13.63235836213836
Epoch: 2026-05-01T06:58Z
TLE epoch observation values (Epoch: 2026-05-01T06:58:04.916Z)
Latitude
6.6682°
Longitude
179.92928°
Altitude
1,037.509 km
Speed
7.328 km/s
True Right ascension
09h 34m 41s
True Declination
6° 37' 49"
Sunlit
Object was in daylight at epoch
Visualization orbit readout
Latitude
Unknown
Longitude
Unknown
Altitude
Unknown
Speed
Unknown
Apparent Right ascension
Unknown
Apparent Declination
Unknown
Sunlit
N/A
Visualization observer readout
Local Sidereal Time
20:53:23
Azimuth
Unknown
Elevation
Unknown
Doppler factor
Unknown
Orbital elements
Apogee altitude
1,102.081 km
Perigee altitude
952.606 km
Semi-major axis
7,405.48 km
Eccentricity
0.01009
Inclination
32.4428°
RAAN
334.2172°
Arg. of periapsis
65.0178°
True anomaly
102.48805°
Mean anomaly
101.3571°
Eccentric anomaly
101.92287°
Mean motion
3.40575 °/min
Orbital period
105.7 mins
BSTAR
0.000075823
Loading maneuver chart data...
Computing Atmospheric mass density...
Loading historical data...
Loading historical data...
Loading historical data...
Loading historical data...
Loading historical data...
Loading historical data...
Loading historical data...
Other satellites on launch #31 in the year 1961 (1961-11-15 UTC)

Documentation

Showing up to 5 results
|